Weather History for KMIA - August, 2013

Change the Weather History Date:

Thursday, August 22, 2013

  Actual Average Record
Temperature  
Mean Temperature 85 °F 84 °F  
Max Temperature 90 °F 91 °F 96 °F (1993)
Min Temperature 80 °F 77 °F 70 °F (1933)
Degree Days  
Heating Degree Days 0 0  
Month to date heating degree days 0 0  
Since 1 June heating degree days 0 0  
Since 1 July heating degree days 0 0  
Cooling Degree Days 20 19  
Month to date cooling degree days 431 426  
Year to date cooling degree days 2975 2906  
Since 1 June cooling degree days 1530 1550  
Growing Degree Days 35 (Base 50)    
Moisture  
Dew Point 75 °F    
Average Humidity 74    
Maximum Humidity 85    
Minimum Humidity 63    
Precipitation  
Precipitation T in 0.30 in 4.31 in (1933)
Month to date precipitation 3.10 6.07  
Year to date precipitation 41.35 37.59  
Snow  
Snow 0.00 in - - ()
Month to date snowfall 0.0  
Since 1 June snowfall 0.0  
Since 1 July snowfall 0.0  
Snow Depth 0.00 in    
Sea Level Pressure  
Sea Level Pressure 30.03 in    
Wind  
Wind Speed 11 mph (ESE)    
Max Wind Speed 18 mph    
Max Gust Speed 25 mph    
Visibility 10 miles    
Events      
T = Trace of Precipitation, MM = Missing Value Source: NWS Daily Summary

Daily Weather History Graph

Daily Weather History Graph

Search for Another Location

Airport or City:

Trip Planner

Search our weather history database for the weather conditions in past years. The results will help you decide how hot, cold, wet, or windy it might be!

Date:

Astronomy

Aug. 22, 2013 Rise Set
Actual Time 6:57 AM EDT 7:50 PM EDT
Civil Twilight 6:33 AM EDT 8:13 PM EDT
Nautical Twilight 6:05 AM EDT 8:41 PM EDT
Astronomical Twilight 5:37 AM EDT 9:10 PM EDT
Moon 8:53 PM EDT (8/22) 8:28 AM EDT (8/22)
Length of Visible Light 13h 40m
Length of Day
12h 52m
Waning Gibbous, 97% of the Moon is Illuminated
Aug 22
Waning Gibbous
Aug 28
Last Quarter
Sep 5
New
Sep 12
First Quarter
Sep 19
Full

Hourly Weather History & Observations

Time (EDT) Temp. Heat Index Dew Point Humidity Pressure Visibility Wind Dir Wind Speed Gust Speed Precip Events Conditions
12:25 AM 82.4 °F 90.9 °F 77.0 °F 84% 30.07 in 10.0 mi ESE 13.8 mph - N/A   Mostly Cloudy
12:53 AM 82.0 °F 87.4 °F 73.0 °F 74% 30.06 in 10.0 mi East 6.9 mph - N/A   Mostly Cloudy
1:53 AM 80.1 °F 85.1 °F 75.0 °F 85% 30.05 in 10.0 mi ENE 6.9 mph - N/A   Mostly Cloudy
2:53 AM 82.0 °F 90.2 °F 77.0 °F 85% 30.04 in 10.0 mi East 9.2 mph - N/A   Mostly Cloudy
3:53 AM 82.9 °F 90.8 °F 75.9 °F 79% 30.03 in 10.0 mi East 9.2 mph - N/A   Mostly Cloudy
4:53 AM 82.9 °F 90.8 °F 75.9 °F 79% 30.02 in 10.0 mi ESE 10.4 mph - N/A   Mostly Cloudy
5:53 AM 82.0 °F 89.4 °F 75.9 °F 82% 30.02 in 10.0 mi ESE 6.9 mph - N/A   Scattered Clouds
6:53 AM 82.9 °F 90.8 °F 75.9 °F 79% 30.02 in 10.0 mi East 10.4 mph - N/A   Mostly Cloudy
7:53 AM 84.0 °F 92.6 °F 75.9 °F 76% 30.04 in 10.0 mi ESE 11.5 mph - N/A   Mostly Cloudy
8:53 AM 84.9 °F 94.1 °F 75.9 °F 74% 30.05 in 10.0 mi ESE 11.5 mph - N/A   Mostly Cloudy
9:42 AM 86.0 °F 96.9 °F 77.0 °F 74% 30.05 in 10.0 mi East 13.8 mph - N/A   Mostly Cloudy
9:53 AM 86.0 °F 95.1 °F 75.0 °F 70% 30.06 in 10.0 mi ESE 13.8 mph - N/A   Mostly Cloudy
10:53 AM 88.0 °F 97.5 °F 75.0 °F 65% 30.06 in 10.0 mi ESE 12.7 mph - N/A   Mostly Cloudy
11:53 AM 89.1 °F 99.1 °F 75.0 °F 63% 30.05 in 10.0 mi ESE 12.7 mph - N/A   Mostly Cloudy
12:53 PM 89.1 °F 99.1 °F 75.0 °F 63% 30.05 in 10.0 mi East 13.8 mph - N/A   Mostly Cloudy
12:59 PM 87.8 °F 95.6 °F 73.4 °F 62% 30.04 in 10.0 mi East 13.8 mph - N/A   Mostly Cloudy
1:53 PM 88.0 °F 96.5 °F 73.9 °F 63% 30.03 in 10.0 mi East 15.0 mph - N/A   Mostly Cloudy
2:53 PM 88.0 °F 96.5 °F 73.9 °F 63% 30.02 in 10.0 mi ESE 15.0 mph 20.7 mph N/A   Mostly Cloudy
3:53 PM 89.1 °F 99.1 °F 75.0 °F 63% 29.99 in 10.0 mi SE 13.8 mph - N/A   Mostly Cloudy
4:53 PM 88.0 °F 96.5 °F 73.9 °F 63% 29.98 in 10.0 mi ESE 11.5 mph - N/A   Mostly Cloudy
5:53 PM 88.0 °F 97.5 °F 75.0 °F 65% 29.97 in 10.0 mi East 12.7 mph - N/A   Mostly Cloudy
6:53 PM 86.0 °F 93.0 °F 73.0 °F 65% 29.97 in 10.0 mi East 11.5 mph - N/A   Mostly Cloudy
7:53 PM 84.9 °F 93.3 °F 75.0 °F 72% 29.99 in 10.0 mi ESE 12.7 mph - 0.00 in   Mostly Cloudy
8:53 PM 84.0 °F 91.9 °F 75.0 °F 74% 30.01 in 10.0 mi East 8.1 mph - N/A   Mostly Cloudy
9:53 PM 84.0 °F 91.2 °F 73.9 °F 72% 30.01 in 10.0 mi East 13.8 mph - 0.00 in   Mostly Cloudy
10:53 PM 82.9 °F 89.4 °F 73.9 °F 74% 30.03 in 10.0 mi East 8.1 mph - N/A   Mostly Cloudy
11:53 PM 82.9 °F 88.8 °F 73.0 °F 72% 30.03 in 10.0 mi ESE 9.2 mph - N/A   Mostly Cloudy